Location: Hac?musa Deresi
(39.1694°N, 32.2508°E)
Time: 15:36:29
(UTC+00:00)

CSL-04 Rocket - Pass Details

Date: 22 April 2026
Orbit: 804 x 858 km, 98.7° (Epoch: 11 May)

Event Time Altitude Azimuth Distance (km) Brightness Sun altitude
Exits shadow 17:58:15 - 177° (S) 3,102 6.3 -15.5°
Reaches altitude 10° 17:59:51 10° 180° (S) 2,481 5.8 -15.8°
Maximum altitude 18:05:17 58° 259° (W) 997 4.3 -16.7°
Drops below altitude 10° 18:10:46 10° 338° (NNW) 2,496 7.0 -17.6°
Sets 18:13:11 0° 343° (NNW) 3,433 7.7 -18.0°
